When you browse on this site, cookies collect data to enhance your experience and personalize the content and advertising you see.
Visit our Privacy Policy to learn more. By continuing to use the site, you agree to this use of cookies and data.
  • In United Kingdom
  • List of Countries
  • For 7 days
  • Water Temperature
  • Satellite Maps
  • Weather Map
  • Weather Widgets
  • user-avatar
    Login

    Hourly Weather Dankon

    Today, 24 January, Thursday

    Time Temperature Precipitation Wind Pressure Humidity
    00:00 +16°C° 0 mm 0 mps 704 mmHg 85%
    01:00 +15°C° 0 mm 0 mps 704 mmHg 86%
    02:00 +15°C° 0 mm 0 mps 704 mmHg 88%
    03:00 +15°C° 0 mm 0 mps 704 mmHg 89%
    04:00 +14°C° 0 mm 0 mps 704 mmHg 90%
    05:00 +14°C° 0 mm 0 mps 704 mmHg 92%
    06:00 +14°C° 0 mm 0 mps 704 mmHg 93%
    07:00 +14°C° 0 mm 0 mps 704 mmHg 94%
    08:00 +17°C° 0 mm 0 mps 705 mmHg 80%
    09:00 +21°C° 0 mm 0 mps 706 mmHg 66%
    10:00 +25°C° 0 mm 0 mps 707 mmHg 52%
    11:00 +26°C° 0 mm 0 mps 706 mmHg 46%
    12:00 +29°C° 0 mm 1 mps 706 mmHg 39%
    13:00 +30°C° 0 mm 1 mps 705 mmHg 33%
    14:00 +30°C° 0 mm 1 mps 705 mmHg 33%
    15:00 +30°C° 0 mm 1 mps 704 mmHg 33%
    16:00 +30°C° 0 mm 1 mps 703 mmHg 33%
    17:00 +25°C° 0 mm 0 mps 703 mmHg 42%
    18:00 +22°C° 0 mm 0 mps 703 mmHg 51%
    19:00 +19°C° 0 mm 0 mps 703 mmHg 60%
    20:00 +18°C° 0 mm 0 mps 704 mmHg 63%
    21:00 +18°C° 0 mm 0 mps 704 mmHg 66%
    22:00 +17°C° 0 mm 0 mps 704 mmHg 69%
    23:00 +17°C° 0 mm 0 mps 704 mmHg 72%

    Tomorrow, 25 January, Friday

    Time Temperature Precipitation Wind Pressure Humidity
    00:00 +16°C° 0 mm 0 mps 704 mmHg 75%
    01:00 +16°C° 0 mm 0 mps 704 mmHg 77%
    02:00 +15°C° 0 mm 0 mps 704 mmHg 79%
    03:00 +15°C° 0 mm 0 mps 704 mmHg 81%
    04:00 +15°C° 0 mm 0 mps 704 mmHg 83%
    05:00 +15°C° 0 mm 0 mps 704 mmHg 84%
    06:00 +14°C° 0 mm 0 mps 704 mmHg 86%
    07:00 +14°C° 0 mm 0 mps 705 mmHg 87%
    08:00 +18°C° 0 mm 0 mps 706 mmHg 74%
    09:00 +22°C° 0 mm 0 mps 707 mmHg 61%
    10:00 +26°C° 0 mm 0 mps 708 mmHg 48%
    11:00 +27°C° 0 mm 0 mps 707 mmHg 42%
    12:00 +28°C° 0 mm 0 mps 707 mmHg 36%
    13:00 +32°C° 0 mm 1 mps 706 mmHg 30%
    14:00 +31°C° 0 mm 1 mps 705 mmHg 30%
    15:00 +31°C° 0 mm 1 mps 705 mmHg 30%
    16:00 +31°C° 0 mm 1 mps 704 mmHg 31%
    17:00 +26°C° 0 mm 0 mps 704 mmHg 39%
    18:00 +22°C° 0 mm 0 mps 704 mmHg 48%
    19:00 +19°C° 0 mm 0 mps 704 mmHg 57%
    20:00 +19°C° 0 mm 0 mps 705 mmHg 59%
    21:00 +18°C° 0 mm 0 mps 705 mmHg 61%
    22:00 +19°C° 0 mm 1 mps 706 mmHg 64%
    23:00 +19°C° 0 mm 1 mps 706 mmHg 68%

    Day after tomorrow, 26 January, Saturday

    Time Temperature Precipitation Wind Pressure Humidity
    00:00 +18°C° 0 mm 1 mps 706 mmHg 72%
    01:00 +18°C° 0 mm 1 mps 706 mmHg 75%
    02:00 +16°C° 0 mm 1 mps 706 mmHg 80%
    03:00 +16°C° 0 mm 1 mps 705 mmHg 85%
    04:00 +16°C° 0 mm 1 mps 705 mmHg 90%
    05:00 +16°C° 0 mm 1 mps 706 mmHg 92%
    06:00 +16°C° 0 mm 1 mps 706 mmHg 94%
    07:00 +16°C° 0 mm 1 mps 707 mmHg 97%
    08:00 +19°C° 0 mm 1 mps 708 mmHg 84%
    09:00 +22°C° 0 mm 1 mps 708 mmHg 72%
    10:00 +25°C° 0 mm 1 mps 709 mmHg 59%
    11:00 +26°C° 0 mm 1 mps 709 mmHg 55%
    12:00 +28°C° 0 mm 1 mps 708 mmHg 50%
    13:00 +29°C° 0 mm 1 mps 708 mmHg 46%
    14:00 +28°C° 0 mm 1 mps 707 mmHg 50%
    15:00 +25°C° 0 mm 0 mps 706 mmHg 54%
    16:00 +24°C° 0 mm 0 mps 706 mmHg 59%
    17:00 +22°C° 0 mm 0 mps 706 mmHg 65%
    18:00 +23°C° 0 mm 1 mps 706 mmHg 71%
    19:00 +21°C° 0 mm 1 mps 706 mmHg 78%
    20:00 +20°C° 0 mm 1 mps 707 mmHg 80%
    21:00 +19°C° 0 mm 1 mps 707 mmHg 83%
    22:00 +18°C° 0 mm 1 mps 707 mmHg 85%
    23:00 +18°C° 0 mm 1 mps 707 mmHg 87%

    27 January, Sunday

    Time Temperature Precipitation Wind Pressure Humidity
    00:00 +16°C° 0 mm 1 mps 707 mmHg 88%
    01:00 +16°C° 0 mm 1 mps 707 mmHg 90%
    02:00 +15°C° 0 mm 1 mps 706 mmHg 91%
    03:00 +15°C° 0 mm 1 mps 706 mmHg 92%
    04:00 +14°C° 0 mm 1 mps 706 mmHg 94%
    05:00 +14°C° 0 mm 1 mps 706 mmHg 94%
    06:00 +14°C° 0 mm 1 mps 707 mmHg 95%
    07:00 +13°C° 0 mm 0 mps 707 mmHg 96%
    08:00 +18°C° 0 mm 1 mps 708 mmHg 82%
    09:00 +21°C° 0 mm 1 mps 709 mmHg 68%
    10:00 +24°C° 0 mm 1 mps 710 mmHg 55%
    11:00 +26°C° 0 mm 1 mps 709 mmHg 49%
    12:00 +28°C° 0 mm 1 mps 708 mmHg 44%
    13:00 +30°C° 0 mm 1 mps 707 mmHg 39%
    14:00 +30°C° 0 mm 1 mps 706 mmHg 38%
    15:00 +29°C° 0 mm 1 mps 705 mmHg 38%
    16:00 +29°C° 0 mm 1 mps 705 mmHg 38%
    17:00 +24°C° 0 mm 0 mps 705 mmHg 48%
    18:00 +21°C° 0 mm 0 mps 705 mmHg 58%
    19:00 +19°C° 0 mm 0 mps 705 mmHg 68%
    20:00 +18°C° 0 mm 0 mps 705 mmHg 70%
    21:00 +18°C° 0 mm 0 mps 706 mmHg 73%
    22:00 +17°C° 0 mm 0 mps 706 mmHg 76%
    23:00 +17°C° 0 mm 0 mps 706 mmHg 79%

    28 January, Monday

    Time Temperature Precipitation Wind Pressure Humidity
    00:00 +16°C° 0 mm 0 mps 706 mmHg 82%
    01:00 +16°C° 0 mm 0 mps 705 mmHg 85%
    02:00 +15°C° 0 mm 0 mps 705 mmHg 87%
    03:00 +15°C° 0 mm 0 mps 705 mmHg 89%
    04:00 +15°C° 0 mm 0 mps 705 mmHg 91%
    05:00 +14°C° 0 mm 0 mps 705 mmHg 92%
    06:00 +14°C° 0 mm 0 mps 705 mmHg 94%
    07:00 +14°C° 0 mm 0 mps 706 mmHg 95%
    08:00 +18°C° 0 mm 0 mps 707 mmHg 81%
    09:00 +21°C° 0 mm 0 mps 707 mmHg 67%
    10:00 +25°C° 0 mm 0 mps 708 mmHg 53%
    11:00 +27°C° 0 mm 0 mps 707 mmHg 48%
    12:00 +28°C° 0 mm 0 mps 707 mmHg 42%
    13:00 +30°C° 0 mm 0 mps 706 mmHg 37%
    14:00 +29°C° 0 mm 0 mps 705 mmHg 37%
    15:00 +31°C° 0 mm 1 mps 704 mmHg 38%
    16:00 +30°C° 0 mm 1 mps 704 mmHg 39%
    17:00 +26°C° 0 mm 0 mps 704 mmHg 47%
    18:00 +23°C° 0 mm 0 mps 704 mmHg 55%
    19:00 +21°C° 0 mm 0 mps 704 mmHg 63%
    20:00 +20°C° 0 mm 0 mps 704 mmHg 67%
    21:00 +19°C° 0 mm 0 mps 705 mmHg 70%
    22:00 +19°C° 0 mm 0 mps 705 mmHg 74%
    23:00 +18°C° 0 mm 0 mps 705 mmHg 75%

    29 January, Tuesday

    Time Temperature Precipitation Wind Pressure Humidity
    00:00 +18°C° 0 mm 0 mps 705 mmHg 77%
    01:00 +18°C° 0 mm 0 mps 705 mmHg 78%
    02:00 +17°C° 0 mm 0 mps 704 mmHg 80%
    03:00 +17°C° 0 mm 0 mps 704 mmHg 82%
    04:00 +17°C° 0 mm 0 mps 704 mmHg 83%
    05:00 +16°C° 0 mm 0 mps 704 mmHg 86%
    06:00 +16°C° 0 mm 0 mps 705 mmHg 88%
    07:00 +15°C° 0 mm 0 mps 705 mmHg 91%
    08:00 +19°C° 0 mm 0 mps 706 mmHg 77%
    09:00 +22°C° 0 mm 0 mps 706 mmHg 64%
    10:00 +26°C° 0 mm 0 mps 707 mmHg 51%
    11:00 +27°C° 0 mm 0 mps 706 mmHg 46%
    12:00 +29°C° 0 mm 0 mps 706 mmHg 42%
    13:00 +30°C° 0 mm 0 mps 705 mmHg 38%
    14:00 +29°C° 0 mm 0 mps 704 mmHg 40%
    15:00 +28°C° 0 mm 0 mps 704 mmHg 42%
    16:00 +27°C° 0 mm 0 mps 703 mmHg 43%
    17:00 +25°C° 0 mm 0 mps 703 mmHg 50%
    18:00 +23°C° 0 mm 0 mps 703 mmHg 56%
    19:00 +21°C° 0 mm 0 mps 703 mmHg 62%
    20:00 +21°C° 0 mm 0 mps 704 mmHg 65%
    21:00 +20°C° 0 mm 0 mps 704 mmHg 68%
    22:00 +20°C° 0 mm 0 mps 705 mmHg 70%
    23:00 +19°C° 0 mm 0 mps 705 mmHg 72%
    Show more